Tracking 27402 objects as of 2-Jun-2023
HD Live streaming from Space Station
objects crossing your sky now

STARLINK-4439

Track STARLINK-4439 now!
10-day predictions
STARLINK-4439 is classified as:


NORAD ID: 53498
Int'l Code: 2022-099AK
Perigee: 566.8 km
Apogee: 571.6 km
Inclination: 97.7 °
Period: 95.9 minutes
Semi major axis: 6940 km
RCS: Unknown
Launch date: August 12, 2022
Source: United States (US)
Launch site: AIR FORCE WESTERN TEST RANGE (AFWTR)
Your satellite tracking list
Your tracking list is empty




NASA's NSSDC Master Catalog

Two Line Element Set (TLE):
1 53498U 22099AK  23153.29983697  .00040212  00000-0  30916-2 0  9998
2 53498  97.6555 274.5825 0003435 185.1416 174.9774 15.01575758 44485
Source of the keplerian elements: AFSPC